| time (UTC) | temp C | wind direction | speed KPH | gust KPH | rain 1hr cm | rain 24hr cm | rain mn cm | humidity % | barometer mb |
| 20260904070152 | 22 | 0 | 0.0 | 0.0 | 0.00 | 0.00 | 0.00 | 95 | 1010.2 |
| 20260904050152 | 22 | 0 | 0.0 | 0.0 | 0.00 | 0.81 | 0.00 | 93 | 1011.3 |
| 20260904040150 | 22 | 0 | 0.0 | 0.0 | 0.00 | 0.81 | 0.00 | 92 | 1011.9 |
| 20260904033150 | 22 | 0 | 0.0 | 0.0 | 0.00 | 0.81 | 0.81 | 91 | 1012.1 |
| 20260904030150 | 22 | 0 | 0.0 | 0.0 | 0.00 | 0.81 | 0.81 | 91 | 1012.2 |
| 20260904023150 | 23 | 0 | 0.0 | 0.0 | 0.00 | 0.81 | 0.81 | 90 | 1012.1 |
| 20260904020152 | 23 | 0 | 0.0 | 0.0 | 0.00 | 0.81 | 0.81 | 90 | 1012.4 |
| 20260904010150 | 23 | 0 | 0.0 | 0.0 | 0.00 | 0.81 | 0.81 | 87 | 1012.5 |
| 20260904003150 | 24 | 0 | 0.0 | 0.0 | 0.00 | 0.81 | 0.81 | 86 | 1012.5 |
| 20260903230151 | 26 | 163 | 0.0 | 1.6 | 0.00 | 0.81 | 0.81 | 76 | 1011.7 |
| 20260903210151 | 27 | 256 | 1.6 | 4.8 | 0.00 | 0.81 | 0.81 | 69 | 1012.0 |
| 20260903190151 | 27 | 200 | 3.2 | 6.4 | 0.00 | 0.81 | 0.81 | 68 | 1012.9 |
| 20260903170151 | 25 | 231 | 1.6 | 8.0 | 0.00 | 0.81 | 0.81 | 75 | 1013.3 |
| 20260903160151 | 25 | 276 | 3.2 | 8.0 | 0.00 | 0.81 | 0.81 | 80 | 1013.9 |
| 20260903150151 | 23 | 272 | 3.2 | 8.0 | 0.00 | 0.81 | 0.81 | 86 | 1014.2 |
| 20260903140151 | 21 | 201 | 1.6 | 6.4 | 0.00 | 0.81 | 0.81 | 95 | 1014.4 |
| 20260903120153 | 20 | 0 | 0.0 | 0.0 | 0.00 | 0.81 | 0.81 | 95 | 1015.7 |
| 20260903110151 | 20 | 71 | 0.0 | 0.0 | 0.00 | 0.79 | 0.79 | 95 | 1015.7 |
| 20260903100151 | 19 | 0 | 0.0 | 0.0 | 0.00 | 0.79 | 0.79 | 95 | 1014.8 |
| 20260903090153 | 19 | 0 | 0.0 | 0.0 | 0.00 | 0.79 | 0.79 | 95 | 1015.2 |
| 20260903080151 | 18 | 0 | 0.0 | 0.0 | 0.00 | 0.79 | 0.79 | 95 | 1015.7 |